This is the latest recevied weather packets stored in our database for station/object ALTO-WX. If no packets are shown the sender has not sent any weather packets the latest 10 day(s).
| Time | Temp. | Humidity | Pressure | Rain* | Wind** | Luminosity | Snow |
|---|---|---|---|---|---|---|---|
| 1777602646 | 5.56° C | 70% | 984.6 hPa | 0 mm | - | - | - |
| 1777601733 | 5.56° C | 70% | 984.5 hPa | 0 mm | - | - | - |
| 1777600853 | 5.56° C | 70% | 984.5 hPa | 0 mm | - | - | - |
| 1777599933 | 5.56° C | 60% | 984.7 hPa | 0 mm | - | - | - |
| 1777599047 | 5.56° C | 60% | 984.7 hPa | 0 mm | - | - | - |
| 1777598134 | 6.67° C | 60% | 984.8 hPa | 0 mm | - | - | - |
| 1777597253 | 6.67° C | 60% | 984.8 hPa | 0 mm | - | - | - |
| 1777596333 | 6.67° C | 52% | 984.1 hPa | 0 mm | - | - | - |
| 1777595446 | 6.67° C | 52% | 985.4 hPa | 0 mm | - | - | - |
| 1777594534 | 7.22° C | 52% | 985.4 hPa | 0 mm | - | - | - |
| 1777593661 | 7.78° C | 52% | 985.4 hPa | 0 mm | - | - | - |
| 1777592736 | 7.78° C | 44% | 985 hPa | 0 mm | - | - | - |
| 1777591849 | 7.78° C | 45% | 985.1 hPa | 0 mm | - | - | - |
| 1777590935 | 7.78° C | 45% | 985 hPa | 0 mm | - | - | - |
| 1777590054 | 8.33° C | 45% | 985 hPa | 0 mm | - | - | - |
| 1777589134 | 8.89° C | 41% | 985.6 hPa | 0 mm | - | - | - |
| 1777588247 | 8.89° C | 43% | 986.1 hPa | 0 mm | - | - | - |
| 1777587335 | 8.89° C | 43% | 986.1 hPa | 0 mm | - | - | - |
| 1777586460 | 8.89° C | 43% | 986.1 hPa | 0 mm | - | - | - |
| 1777585534 | 9.44° C | 43% | 985 hPa | 0 mm | - | - | - |
| 1777584651 | 9.44° C | 45% | 985.8 hPa | 0 mm | - | - | - |
| 1777583735 | 8.89° C | 45% | 985.8 hPa | 0 mm | - | - | - |
| 1777582854 | 9.44° C | 45% | 985.8 hPa | 0 mm | - | - | - |
| 1777581935 | 9.44° C | 44% | 985.3 hPa | 0 mm | - | - | - |
| 1777581052 | 9.44° C | 43% | 985.1 hPa | 0 mm | - | - | - |
* Rain latest hour (hover to see other rain measurements)
** Current wind speed in m/s (hover to see current wind gust speed)